Home > Weather > Tulkarm > Past weeks

Flag for Palestinian Territories Weather for the Past 2 Weeks in Tulkarm, West Bank, Palestinian Territories

Now
55 °F

Clear.


Feels Like: 55 °F
Forecast: 49 / 67 °F
Wind: 3 mph from North

Location: Dov Airport

Current Time: Feb 12, 2016 at 12:26:10 AM

Latest Report: Feb 11, 2016 at 10:50 PM


Visibility: 10 mi

Pressure: 30.24 "Hg

Humidity: 82%

Dew point: 50 °F

Location of TulkarmLocation

Historic Weather in Tulkarm — Graph

°F

Tulkarm Temperature Yesterday

Maximum temperature yesterday: 63 °F (at 1:50 PM)
Minimum temperature yesterday: 52 °F (at 5:50 AM)
Average temperature yesterday: 58 °F

High & Low Weather Summary for the Past Weeks

 TemperatureHumidityPressure
High75 °F (Feb 4, 12:50 PM)94% (Feb 8, 6:50 AM)30.42 "Hg (Feb 8, 6:50 AM)
Low39 °F (Jan 28, 5:50 AM)22% (Feb 4, 12:50 PM)29.89 "Hg (Feb 7, 5:50 AM)
Average57 °F65%30.17 "Hg
* Reported Jan 27 10:50 PM — Feb 11 10:50 PM, Tulkarm, Weather by CustomWeather, © 2016

Note: Actual official high and low records may vary slightly from our data, if they occured in-between our weather recording intervals... More about our weather records

Advertising

Tulkarm Weather History for the Previous 24 Hours

 ConditionsComfort  
Time TempWeatherWind HumidityBarometerVisibility
10:50 PM
Thu, Feb 11
55 °FClear.3 mph82%30.24 "Hg10 mi
9:50 PM55 °FClear.3 mph82%30.24 "Hg10 mi
8:50 PM57 °FClear.3 mph77%30.24 "Hg10 mi
7:50 PM59 °FClear.2 mph77%30.24 "Hg10 mi
6:50 PM61 °FPassing clouds.6 mph68%30.24 "HgN/A
5:50 PM61 °FPassing clouds.6 mph68%30.24 "HgN/A
4:50 PM61 °FPassing clouds.9 mph68%30.21 "HgN/A
3:50 PM63 °FPassing clouds.12 mph68%30.21 "HgN/A
2:50 PM63 °FPassing clouds.12 mph68%30.21 "HgN/A
1:50 PM63 °FScattered clouds.14 mph68%30.21 "HgN/A
12:50 PM61 °FScattered clouds.13 mph72%30.21 "HgN/A
11:50 AM59 °FBroken clouds.13 mph77%30.24 "HgN/A
10:50 AM59 °FScattered clouds.12 mph77%30.24 "HgN/A
9:50 AM57 °FPartly sunny.6 mph77%30.24 "HgN/A
8:50 AM55 °FPartly sunny.6 mph82%30.24 "HgN/A
7:50 AM54 °FPartly sunny.6 mph88%30.24 "HgN/A
6:50 AM52 °FPassing clouds.7 mph88%30.21 "HgN/A
5:50 AM52 °FPassing clouds.7 mph88%30.21 "HgN/A
Weather by CustomWeather, © 2016

See weather overviewHow to use our weather pages